Regional Weather Roundup
Issued by NWS Sioux Falls, SD

Home | Current Version | Previous Version | Text Only | Print | Product List | Glossary On
Versions: 1 2 3 4 5 6 7 8 9 10 11 12 13 14 15 16 17 18 19 20 21 22 23 24 25 26 27 28 29 30 31 32 33 34 35 36 37 38 39 40 41 42 43 44 45 46 47 48 49 50
000
ASUS43 KFSD 210310
RWRFSD

WEATHER ROUNDUP FOR SE SOUTH DAKOTA/SW MINNESOTA/NW IOWA
NATIONAL WEATHER SERVICE SIOUX FALLS SD
1000 PM CDT SUN AUG 20 2017

NOTE: "FAIR" INDICATES FEW OR NO CLOUDS BELOW 12,000 FEET WITH NO
SIGNIFICANT WEATHER AND OR OBSTRUCTIONS TO VISIBILITY.


SDZ038>040-050-052>070-210400-
SOUTHEAST SOUTH DAKOTA

CITY           SKY/WX    TMP DP  RH WIND       PRES   REMARKS
BROOKINGS      PTCLDY    65  58  78 E6        30.04R
CHAMBERLAIN    MOCLDY    69  61  75 NE8       30.00R
HURON          CLEAR     64  58  80 NE8       30.02R
MADISON        CLOUDY    64  64 100 SE5       30.04R
MITCHELL       CLOUDY    70  59  68 E8        30.00R
SIOUX FALLS    MOCLDY    71  64  78 E8        30.01R
WINNER         FAIR      69  62  78 E6        30.01R
YANKTON        CLEAR     74  71  91 NE8       29.98
$$

MNZ071-072-080-081-089-090-097-098-210400-
SOUTHWEST MINNESOTA

CITY           SKY/WX    TMP DP  RH WIND       PRES   REMARKS
FAIRMONT       MOCLDY    72  69  90 N6        30.03R
JACKSON        CLEAR     68  64  88 CALM      30.05R
LUVERNE        CLOUDY    68  63  83 NE8       30.03R
MARSHALL       CLEAR     64  61  90 CALM      30.03R
MONTEVIDEO     CLEAR     63  57  82 N5        30.04R
PIPESTONE      MOCLDY    66  61  82 E5        30.04R
REDWOOD FALLS  CLEAR     67  63  87 CALM      30.02R
TRACY          PTCLDY    65  64  96 CALM      30.04R
WINDOM         CLEAR     68  64  88 NE3       30.04S
WORTHINGTON    PTCLDY    67  65  93 NE6       30.05R
$$

IAZ001>003-012>014-020>022-031-032-NEZ013-014-SDZ071-210400-
NORTHWEST IOWA

CITY           SKY/WX    TMP DP  RH WIND       PRES   REMARKS
CHEROKEE       CLOUDY    75  72  89 CALM      30.00R
DENISON        CLOUDY    72  70  94 E5        30.01R
ESTHERVILLE    PTCLDY    72  70  93 N10       30.02R
ORANGE CITY    PTCLDY    79  72  78 CALM      30.01R
SHELDON        CLOUDY    72  68  88 NE10G17   30.00R
SIOUX CITY     CLOUDY    77  70  79 E6        29.98R
SPENCER        PTCLDY    74  71  91 NE8       30.02R
STORM LAKE     MOCLDY    73  68  83 CALM      30.02R
$$

ABBREVIATIONS USED IN REMARKS
   TC - TEMPERATURE IN CELSIUS
  WCI - WIND CHILL INDEX
   HX - HEAT INDEX
  VSB - VISIBILITY




USA.gov is the U.S. government's official web portal to all federal, state and local government web resources and services.